sat.trackr.live / text

‹ back to catalog

NANOACE

NORAD 42844 · 2017-042V

PAYLOAD ACTIVE UNKNOWN

§ Identity

Operator
Country
US
Launch date
2017-07-14
Launch site
TYMSC
Launch vehicle
Mass (kg)
RCS (m²)

External: N2YO · Heavens-Above · Gunter

§ Orbital elements

Epoch: 2026-05-24T23:44:27.468384Z

Period
94.49 min
Inclination
97.3735°
Eccentricity
0.0005717
Mean motion
15.23937113 rev/d
Perigee alt
490.1 km
Apogee alt
497.9 km
Semi-major
6,872.1 km
B*
4.2823e-4
RAAN
319.6504°
Arg perigee
99.1596°
Mean anomaly
261.0288°
Rev number
48,454

§ Raw data

NANOACE1 42844U 17042V   26144.98920681  .00010292  00000+0  42823-3 0  99912 42844  97.3735 319.6504 0005717  99.1596 261.0288 15.23937113484542

JSON: /api/v1/satellites/42844 · /tle

For live sub-satellite position, see the globe view (requires WebGL).

§ Visibility from observer

Set your observer location to see the next 7 days of passes ≥ 10°. The values pass through the URL so the page stays shareable.

No JS? Fill the form by hand. The geolocation button needs JavaScript.